Location: *
(17.3280°S, 114.7300°W)
Time: 07:08:01
(UTC+00:00)

H-2A R/B - Pass Details

Date: 05 August 2020
Orbit: 529 x 653 km, 98.3° (Epoch: 21 September)

Event Time Altitude Azimuth Distance (km) Brightness Sun altitude
Rises 13:17:51 0° 341° (NNW) 2,655 5.8 -11.2°
Reaches altitude 10° 13:20:30 10° 320° (NW) 1,782 4.7 -10.5°
Maximum altitude 13:23:03 17° 278° (W) 1,410 3.8 -10.0°
Enters shadow 13:25:12 12° 242° (WSW) 1,707 4.2 -9.5°
